Overview Statistics Trail Chart Weather Telemetry Raw packets
 

This is the latest recevied weather packets stored in our database for station/object IW1RCO-13. If no packets are shown the sender has not sent any weather packets the latest 10 day(s).

<< 13 14 15 16 17 18 19 >>
Time Temp. Humidity Pressure Rain* Wind** Luminosity Snow
1788572371 18.89° C 49% 1018.5 hPa - - - -
1788572067 18.89° C 46% 1019 hPa - - - -
1788571771 18.89° C 50% 1018.8 hPa - - - -
1788571467 18.89° C 51% 1019.6 hPa - - - -
1788571170 18.89° C 51% 1018.5 hPa - - - -
1788570867 18.89° C 53% 1018.6 hPa - - - -
1788570570 18.89° C 52% 1018.8 hPa - - - -
1788570267 18.89° C 58% 1018.9 hPa - - - -
1788569970 18.89° C 57% 1019 hPa - - - -
1788569673 18.89° C 58% 1019.3 hPa - - - -
1788569073 19.44° C 57% 1019.2 hPa - - - -
1788568769 19.44° C 57% 1019.2 hPa - - - -
1788568473 19.44° C 59% 1018.9 hPa - - - -
1788568169 19.44° C 59% 1019 hPa - - - -
1788567872 19.44° C 60% 1019.2 hPa - - - -
1788567569 18.89° C 61% 1018 hPa - - - -
1788567272 18.89° C 64% 1019.3 hPa - - - -
1788566969 18.89° C 64% 1018.9 hPa - - - -
1788566672 19.44° C 64% 1019.2 hPa - - - -
1788566368 18.89° C 63% 1019 hPa - - - -
1788566072 19.44° C 64% 1019.7 hPa - - - -
1788565768 19.44° C 62% 1019.4 hPa - - - -
1788565471 19.44° C 61% 1019.7 hPa - - - -
1788565168 19.44° C 62% 1019.1 hPa - - - -
1788564871 19.44° C 64% 1018.9 hPa - - - -

* Rain since midnight (hover to see other rain measurements)
** Current wind speed in m/s (hover to see current wind gust speed)